Precipitable_Water
0.69 0.67 0.66 0.65 0.67 0.66 0.63 0.62 0.62 0.61 0.57 0.54 0.56 0.57 0.61 0.67 0.71 0.83 0.96 1.03 1.06 1.03 0.98 0.93 0.86 0.85 0.87 0.80 0.79 0.80 0.78 0.73 0.69
0.68 0.67 0.65 0.65 0.64 0.63 0.62 0.60 0.60 0.59 0.57 0.55 0.52 0.59 0.62 0.71 0.89 0.99 1.03 1.03 0.99 0.97 1.02 1.02 1.01 1.03 1.01 1.02 1.04 1.03 0.99 0.96 0.93
0.67 0.65 0.64 0.64 0.64 0.63 0.61 0.62 0.62 0.61 0.60 0.55 0.53 0.63 0.78 0.96 0.96 0.97 0.96 0.96 0.91 0.90 0.99 1.06 1.10 1.07 1.09 1.08 1.06 1.03 1.01 1.01 1.03
0.64 0.64 0.64 0.62 0.59 0.60 0.58 0.64 0.65 0.63 0.59 0.55 0.60 0.81 0.91 0.95 0.94 0.91 0.89 0.88 0.88 0.86 0.96 1.05 1.08 1.04 1.04 1.05 1.04 1.01 0.96 0.93 0.93
0.62 0.61 0.62 0.61 0.57 0.55 0.57 0.59 0.65 0.61 0.58 0.56 0.69 0.74 0.82 0.84 0.84 0.86 0.88 0.82 0.78 0.82 0.87 0.97 0.99 0.99 0.97 0.96 0.96 0.95 0.95 0.92 0.91
0.62 0.59 0.59 0.59 0.56 0.52 0.49 0.49 0.55 0.55 0.55 0.54 0.61 0.71 0.77 0.80 0.81 0.78 0.79 0.76 0.78 0.76 0.78 0.86 0.92 0.91 0.86 0.84 0.79 0.78 0.79 0.77 0.75
0.50 0.48 0.49 0.51 0.50 0.47 0.45 0.42 0.47 0.60 0.56 0.57 0.64 0.64 0.68 0.72 0.73 0.76 0.76 0.73 0.74 0.74 0.73 0.75 0.80 0.82 0.78 0.73 0.69 0.70 0.70 0.70 0.70
0.47 0.45 0.47 0.44 0.47 0.45 0.48 0.51 0.49 0.53 0.60 0.62 0.61 0.61 0.65 0.68 0.66 0.69 0.70 0.72 0.73 0.72 0.71 0.72 0.72 0.72 0.70 0.69 0.68 0.67 0.67 0.68 0.68
0.45 0.45 0.45 0.44 0.45 0.45 0.51 0.53 0.51 0.54 0.61 0.62 0.60 0.61 0.63 0.65 0.60 0.58 0.60 0.63 0.68 0.72 0.72 0.73 0.74 0.75 0.74 0.72 0.67 0.64 0.65 0.67 0.68
0.46 0.45 0.46 0.46 0.46 0.47 0.51 0.53 0.53 0.55 0.60 0.61 0.62 0.62 0.62 0.63 0.60 0.54 0.56 0.61 0.66 0.69 0.70 0.72 0.75 0.74 0.76 0.72 0.67 0.64 0.62 0.64 0.66
0.51 0.49 0.47 0.46 0.44 0.49 0.53 0.56 0.56 0.55 0.62 0.62 0.65 0.63 0.61 0.60 0.60 0.53 0.52 0.56 0.61 0.64 0.65 0.67 0.68 0.70 0.71 0.71 0.68 0.66 0.64 0.64 0.64
0.55 0.52 0.51 0.49 0.46 0.49 0.54 0.58 0.60 0.59 0.63 0.64 0.65 0.64 0.62 0.59 0.57 0.53 0.55 0.54 0.52 0.57 0.60 0.60 0.60 0.63 0.69 0.71 0.70 0.68 0.67 0.67 0.67
0.56 0.55 0.54 0.54 0.51 0.49 0.52 0.56 0.58 0.60 0.62 0.63 0.61 0.62 0.61 0.59 0.58 0.55 0.53 0.54 0.52 0.52 0.51 0.50 0.54 0.57 0.61 0.68 0.70 0.70 0.69 0.69 0.70
0.55 0.53 0.55 0.57 0.56 0.53 0.49 0.50 0.52 0.55 0.59 0.59 0.61 0.64 0.61 0.59 0.60 0.57 0.52 0.48 0.50 0.53 0.49 0.50 0.51 0.55 0.60 0.63 0.63 0.64 0.65 0.65 0.67
0.54 0.53 0.53 0.56 0.55 0.55 0.53 0.48 0.49 0.52 0.55 0.56 0.59 0.63 0.64 0.64 0.65 0.61 0.53 0.49 0.52 0.52 0.51 0.53 0.54 0.54 0.56 0.58 0.58 0.59 0.62 0.64 0.66
0.54 0.52 0.51 0.52 0.52 0.54 0.54 0.53 0.47 0.47 0.53 0.50 0.53 0.59 0.64 0.66 0.66 0.67 0.54 0.50 0.51 0.52 0.53 0.53 0.53 0.54 0.55 0.55 0.54 0.58 0.59 0.60 0.63
0.56 0.56 0.54 0.54 0.51 0.53 0.54 0.53 0.49 0.46 0.48 0.45 0.46 0.42 0.53 0.57 0.57 0.61 0.56 0.54 0.54 0.53 0.53 0.52 0.52 0.53 0.54 0.53 0.51 0.48 0.48 0.49 0.51
0.64 0.62 0.63 0.62 0.57 0.54 0.56 0.56 0.53 0.48 0.47 0.48 0.46 0.39 0.38 0.51 0.53 0.57 0.59 0.55 0.54 0.52 0.53 0.52 0.52 0.52 0.48 0.44 0.42 0.37 0.34 0.35 0.40
0.69 0.66 0.65 0.63 0.61 0.59 0.60 0.58 0.58 0.55 0.47 0.46 0.47 0.48 0.48 0.41 0.41 0.51 0.55 0.56 0.52 0.50 0.52 0.51 0.45 0.42 0.39 0.39 0.35 0.32 0.31 0.33 0.37
0.75 0.72 0.71 0.66 0.65 0.64 0.63 0.62 0.60 0.57 0.51 0.48 0.47 0.47 0.48 0.47 0.42 0.40 0.47 0.50 0.51 0.53 0.50 0.39 0.38 0.38 0.33 0.32 0.31 0.31 0.32 0.34 0.36
Wind_Speed
5 5 5 5 5 5 5 5 5 5 5 5 4 4 3 3 4 5 6 7 8 8 9 9 10 9 10 10 9 10 10 10 9
4 4 4 4 4 4 4 4 5 5 5 5 4 4 4 4 4 5 6 7 8 9 10 9 10 9 9 9 9 10 10 10 10
4 3 3 3 4 4 4 4 4 4 5 5 5 4 4 4 4 4 6 7 8 9 9 9 9 9 9 9 9 10 10 11 10
3 3 3 3 3 3 3 4 4 4 4 5 4 4 5 4 5 5 6 7 8 8 9 9 9 8 8 9 9 10 10 11 11
3 3 2 2 2 2 2 3 2 3 3 3 4 4 5 5 5 6 7 8 9 8 8 9 9 9 9 10 10 11 12 12 12
3 3 2 2 2 1 1 1 1 1 2 2 3 4 4 5 6 7 8 9 9 9 9 9 10 10 11 11 12 12 13 13 13
3 3 2 1 1 1 1 1 0 1 2 3 4 4 5 6 7 8 8 9 10 10 10 10 10 11 12 12 13 13 14 14 15
3 3 2 2 2 1 1 2 2 3 3 4 4 5 6 7 8 8 9 10 10 10 11 11 11 12 13 13 14 14 15 15 16
3 2 2 2 2 2 3 3 3 3 4 4 5 6 7 7 8 9 10 10 10 11 11 12 12 13 14 14 15 16 16 17 18
3 3 3 3 3 3 3 4 4 4 5 5 6 6 7 8 9 9 10 11 11 12 12 13 14 14 15 16 17 17 18 18 19
4 3 4 4 4 4 5 5 5 6 6 6 7 8 8 9 10 10 11 12 13 13 14 15 16 16 17 18 19 19 20 20 21
5 5 5 5 5 6 6 7 7 7 8 8 9 9 10 11 11 12 13 13 15 15 16 17 18 19 20 20 21 22 22 22 23
7 7 7 7 7 8 8 9 9 9 10 10 11 12 12 13 13 14 15 16 17 17 18 19 20 21 22 23 23 24 25 25 25
10 10 10 9 9 10 10 11 11 11 12 13 13 14 15 15 16 17 17 18 19 19 21 22 23 24 24 25 26 26 27 28 28
13 12 12 12 12 12 12 12 13 13 14 15 15 16 17 18 18 19 20 21 21 22 23 24 26 26 27 28 29 29 30 31 31
15 14 14 14 14 14 14 14 15 15 16 17 18 19 20 20 21 22 22 23 24 25 26 27 29 29 30 30 31 32 33 34 34
16 15 15 15 16 16 16 16 17 18 18 20 20 20 22 23 23 24 25 25 26 28 29 30 31 32 33 33 34 35 36 36 37
18 18 18 18 18 18 18 19 19 19 20 21 22 22 23 23 25 26 27 28 29 30 32 33 34 34 35 36 37 37 38 39 40
20 20 20 21 21 20 20 20 21 22 22 23 23 24 25 26 27 27 28 30 31 33 34 36 37 37 38 38 39 40 41 42 42
22 22 22 22 22 22 23 23 23 23 23 24 24 25 26 27 28 29 30 31 33 35 36 38 39 39 40 41 41 42 44 44 44
Wind_Direction
113 104 94 85 85 85 83 82 83 82 77 76 80 79 62 53 44 36 27 23 20 15 10 11 9 10 10 9 8 6 3 358 353
121 108 95 85 87 86 85 84 87 83 75 70 74 69 55 55 43 34 30 21 16 11 10 4 5 6 7 7 8 7 5 2 355
129 118 100 89 90 88 87 87 90 81 73 68 69 65 46 40 35 20 8 1 360 1 4 7 7 8 11 9 7 5 5 3 1
142 130 114 96 98 93 93 93 90 82 71 65 65 51 39 40 17 1 353 351 346 349 355 357 356 355 355 356 355 352 349 348 347
148 147 134 108 108 103 102 102 98 83 68 59 57 36 17 12 6 356 353 351 349 343 343 349 348 346 341 338 336 335 335 333 331
162 161 156 135 118 107 110 118 111 82 49 28 5 348 353 352 351 348 346 343 344 342 338 336 339 337 333 332 329 328 326 326 325
167 171 177 179 169 140 138 154 196 286 326 336 334 341 341 341 341 341 341 341 340 339 336 333 331 332 330 328 327 325 324 323 321
180 187 207 220 227 239 248 275 290 294 304 316 326 330 331 334 336 337 336 336 335 335 334 332 330 328 327 327 325 323 320 319 317
192 201 215 230 242 251 263 279 289 295 303 311 318 322 324 328 332 334 334 333 332 332 331 329 327 326 324 323 322 320 318 316 314
215 224 236 246 256 260 267 275 285 292 298 304 310 317 320 322 325 328 330 330 329 327 326 325 323 322 321 319 318 318 316 315 313
230 240 249 253 262 266 272 277 282 286 291 296 302 307 311 314 316 320 323 324 324 323 322 321 319 318 316 315 314 314 313 312 311
236 246 257 262 266 271 275 280 284 285 287 291 295 299 303 306 308 310 311 315 318 317 317 316 315 314 312 311 311 310 310 309 308
245 255 263 267 271 272 275 279 280 282 284 287 291 294 297 299 302 304 306 307 308 311 311 312 312 311 310 309 308 307 307 306 305
252 259 262 266 272 274 277 279 279 281 283 286 289 292 294 295 297 299 301 303 304 304 306 307 309 309 308 307 306 305 305 304 303
254 261 263 266 272 275 276 278 280 282 283 285 288 291 292 292 294 295 297 299 300 302 303 304 305 305 305 304 304 303 303 302 301
255 261 264 267 269 273 275 278 281 283 284 285 287 290 290 291 292 292 293 296 298 300 301 302 303 302 302 302 302 302 302 301 300
255 260 264 268 270 272 274 277 280 283 284 286 286 288 289 289 290 290 291 293 295 298 299 301 301 301 300 300 300 301 300 299 299
256 259 266 269 270 272 274 275 278 283 284 286 288 289 289 288 289 290 290 292 294 297 298 299 300 299 299 299 299 300 300 299 298
256 261 265 270 270 271 272 275 279 283 283 284 287 288 290 291 291 289 291 292 293 296 298 299 299 298 299 298 298 299 299 298 297
258 261 266 269 271 272 272 275 281 283 283 284 285 288 290 290 291 292 293 292 295 296 297 298 298 298 298 298 298 299 299 298 297